User: anonymous   Login
Location: Bédeille
(43.0872°N, 1.1041°E)
Time: 20:53:11
(UTC+00:00)
Language:

Tiangong - Orbit

View from above orbital plane
View from above orbital plane
View from above satellite
View from above satellite

Ground track
Ground track

The orbit data is extracted from the following two-line orbital elements,

1 48274U 21035A   23267.47876049  .00022098  00000-0  24097-3 0  9997
2 48274  41.4730 271.7629 0007990  99.6950 260.4792 15.62819776137354
Epoch (UTC): 24 September 2023 11:29:24
Eccentricity: 0.0007990
inclination: 41.4730°
perigee height: 374 km
apogee height: 385 km
right ascension of ascending node: 271.7629°
argument of perigee: 99.6950°
revolutions per day: 15.62819776
mean anomaly at epoch: 260.4792°
orbit number at epoch: 13735

The dashed part of the orbit path shows where the satellite is in the earth's shadow,  

DLR